Regional Weather Roundup
Issued by NWS Columbia, SC

Home | Current Version | Previous Version | Text Only | Print | Product List | Glossary On
Versions: 1 2 3 4 5 6 7 8 9 10 11 12 13 14 15 16 17 18 19 20 21 22 23 24 25 26 27 28 29 30 31 32 33 34 35 36 37 38 39 40 41 42 43 44 45 46 47 48 49 50
000
ASUS42 KCAE 242210
RWRCAE
REGIONAL WEATHER ROUNDUP
NATIONAL WEATHER SERVICE COLUMBIA SC
600 PM EDT WED AUG 24 2016

NOTE: "FAIR" INDICATES FEW OR NO CLOUDS BELOW 12,000 FEET WITH NO
SIGNIFICANT WEATHER AND/OR OBSTRUCTIONS TO VISIBILITY.

NOT ALL STATIONS ARE QUALITY CONTROLLED BY THE NATIONAL
WEATHER SERVICE. USE DATA WITH CAUTION...ESPECIALLY
DEWPOINT OBSERVATIONS.

SCZ001>056-GAZ040-063>065-077-242300-
...UPSTATE SOUTH CAROLINA...

CITY           SKY/WX    TMP DP  RH WIND       PRES   REMARKS
ANDERSON       MOSUNNY   82  70  66 S5        30.22F
LIBERTY        PTCLDY    82  70  66 SW5       30.22F
SPARTANBURG    MOSUNNY   82  64  54 SW3       30.21F
CLEMSON        MOSUNNY   82  70  66 CALM      30.23F
GREENVILLE     PTSUNNY   83  67  58 SW6       30.24F
GREENWOOD      MOSUNNY   85  67  54 NW3       30.22F
GREER          MOSUNNY   82  66  58 SW7       30.22F
ROCK HILL      MOSUNNY   88  64  44 CALM      30.20F
CHESTER        PTCLDY    86  64  48 NW6       30.20F
LAURENS        PTCLDY    86  66  51 W5        30.21F


...CENTRAL SOUTH CAROLINA...

CITY           SKY/WX    TMP DP  RH WIND       PRES   REMARKS
COLUMBIA APT   PTSUNNY   89  64  43 S6        30.17S
COLUMBIA OWENS PTSUNNY   90  65  43 S9        30.18F
MCENTIRE ANGB  PTSUNNY   88  63  42 E3        30.18F
ORANGEBURG     MOSUNNY   88  62  41 VRB7      30.18S
SUMTER SHAW    PTSUNNY   89  62  40 E8        30.16S
NEWBERRY       PTCLDY    86  68  54 W6        30.21F
AIKEN          FAIR      88  66  48 NW3       30.22F
MANNING        FAIR      86  61  42 N6        30.18S
LANCASTER      CLOUDY    86  64  48 E3        30.19F
WINNSBORO      PTCLDY    86  63  45 CALM      30.19F


...EASTERN AND COASTAL SOUTH CAROLINA...

CITY           SKY/WX    TMP DP  RH WIND       PRES   REMARKS
MYRTLE BEACH   MOSUNNY   88  57  35 NE7       30.19S
N MYRTLE BCH   PTSUNNY   86  62  44 NE12      30.18R
CONWAY         FAIR      86  63  45 NE7       30.18S
MARION         FAIR      82  64  54 E7        30.18F
HARTSVILLE     FAIR      86  61  42 NE3       30.19S
FLORENCE       CLOUDY    89  60  37 E9        30.18F
CHARLESTON APT PTSUNNY   86  63  45 E10       30.17S
MOUNT PLEASANT FAIR      84  66  54 E6        30.17S
WALTERBORO     PTCLDY    90  59  35 E7        30.18S
BEAUFORT       MOSUNNY   86  66  51 E8G17     30.17S


...EASTERN GEORGIA...

CITY           SKY/WX    TMP DP  RH WIND       PRES   REMARKS
AUGUSTA BUSH F PTSUNNY   90  67  46 N9        30.16F
AUGUSTA DANIEL PTSUNNY   88  66  48 N7        30.19F
THOMSON        CLOUDY    86  73  66 MISG      30.24F
WASHINGTON     FAIR      86  73  66 CALM      30.21F
CLAXTON        FAIR      91  66  44 NE9       30.15S
SYLVANIA       CLEAR    N/A N/A N/A E6        30.17F
STATESBORO     MOSUNNY   90  66  44 NE3       30.16F
SAVANNAH       PTSUNNY   87  64  46 E15       30.16F


...SOUTHERN NORTH CAROLINA...

CITY           SKY/WX    TMP DP  RH WIND       PRES   REMARKS
CHARLOTTE      PTSUNNY   86  65  49 NW6       30.20F
MONROE         MOSUNNY   86  62  44 CALM      30.19F
WADESBORO      PTCLDY    88  62  40 E7        30.18S
ROCKINGHAM     MOCLDY    86  64  47 E3        30.18F
RUTHERFORDTON    N/A     81  69  67 SW3       30.24S
ASHEVILLE      SUNNY     79  66  64 S5        30.27F

$$



USA.gov is the U.S. government's official web portal to all federal, state and local government web resources and services.